This demonstration page uses our WeatherBlox Daily Observations layout. Learn more.

39.29038, -76.61219

Hourly Observations for July 7, 2018

Temp ( °F °C ) Dew Point ( °F °C ) Humidity (%) Winds ( mph kmh ) Pressure ( in mb ) Visibility ( mi km ) Precip ( " mm )
12:54 am 00:54 undefined 76 24.4 60 15.6 58 58 undefined N/A 30.19 1022 N/A 0 0
1:54 am 01:54 undefined 74 23.3 55 12.8 52 52 undefined N/A 30.2 1023 N/A 0 0
2:54 am 02:54 undefined 72 22.2 55 12.8 55 55 undefined N/A 30.21 1023 N/A 0 0
3:54 am 03:54 undefined 70 21.1 52 11.1 53 53 undefined N/A 30.24 1024 N/A 0 0
4:54 am 04:54 undefined 69 20.6 51 10.6 53 53 undefined N/A 30.26 1025 N/A 0 0
5:54 am 05:54 undefined 68 20 50 10 53 53 undefined N/A 30.29 1026 N/A 0 0
6:54 am 06:54 undefined 68 20 49 9.4 51 51 undefined N/A 30.31 1027 N/A 0 0
7:54 am 07:54 undefined 69 20.6 50 10 51 51 undefined N/A 30.32 1027 N/A 0 0
8:54 am 08:54 undefined 71 21.7 50 10 47 47 undefined N/A 30.33 1027 N/A 0 0
9:54 am 09:54 undefined 72 22.2 50 10 46 46 undefined N/A 30.33 1027 N/A 0 0
10:54 am 10:54 undefined 74 23.3 50 10 43 43 undefined N/A 30.34 1028 N/A 0 0
11:54 am 11:54 undefined 78 25.6 50 10 37 37 undefined N/A 30.34 1027 N/A 0 0
12:54 pm 12:54 undefined 79 26.1 50 10 36 36 undefined N/A 30.33 1027 N/A 0 0
1:54 pm 13:54 undefined 80 26.7 52 11.1 38 38 undefined N/A 30.32 1027 N/A 0 0
2:54 pm 14:54 undefined 81 27.2 52 11.1 37 37 undefined N/A 30.31 1026 N/A 0 0
3:54 pm 15:54 undefined 81 27.2 51 10.6 35 35 undefined N/A 30.29 1026 N/A 0 0
4:54 pm 16:54 undefined 81 27.2 51 10.6 35 35 undefined N/A 30.28 1025 N/A 0 0
5:54 pm 17:54 undefined 79 26.1 51 10.6 38 38 undefined N/A 30.27 1025 N/A 0 0
6:54 pm 18:54 undefined 79 26.1 51 10.6 38 38 undefined N/A 30.28 1025 N/A 0 0
7:54 pm 19:54 undefined 79 26.1 51 10.6 38 38 undefined N/A 30.28 1025 N/A 0 0
8:54 pm 20:54 undefined 78 25.6 50 10 37 37 undefined N/A 30.28 1026 N/A 0 0
9:54 pm 21:54 undefined 75 23.9 59 15 58 58 undefined N/A 30.32 1027 N/A 0 0
10:54 pm 22:54 undefined 73 22.8 57 13.9 57 57 undefined N/A 30.34 1027 N/A 0 0
11:54 pm 23:54 undefined 71 21.7 56 13.3 59 59 undefined N/A 30.34 1027 N/A 0 0

Powered by AerisWeather